sat.trackr.live / text

‹ back to catalog

STARLINK-3744

NORAD 52304 · 2022-041AV

PAYLOAD ACTIVE UNKNOWN

§ Identity

Operator
Country
US
Launch date
2022-04-21
Launch site
AFETR
Launch vehicle
Mass (kg)
RCS (m²)

Purposes: comms

External: N2YO · Heavens-Above · Gunter

§ Orbital elements

Epoch: 2026-05-25T03:37:37.377120Z

Period
95.44 min
Inclination
53.2134°
Eccentricity
0.0001302
Mean motion
15.08839299 rev/d
Perigee alt
538.8 km
Apogee alt
540.6 km
Semi-major
6,917.9 km
B*
4.8721e-5
RAAN
105.8732°
Arg perigee
79.4820°
Mean anomaly
280.6318°
Rev number
22,618

§ Raw data

STARLINK-37441 52304U 22041AV  26145.15112705  .00000488  00000+0  48721-4 0  99982 52304  53.2134 105.8732 0001302  79.4820 280.6318 15.08839299226187

JSON: /api/v1/satellites/52304 · /tle

For live sub-satellite position, see the globe view (requires WebGL).

§ Visibility from observer

Set your observer location to see the next 7 days of passes ≥ 10°. The values pass through the URL so the page stays shareable.

No JS? Fill the form by hand. The geolocation button needs JavaScript.